Location: Avully
(45.9633°N, 6.0228°E)
Time: 11:36:48
(UTC+00:00)

Cosmos 1346 Rocket - Pass Details

Date: 23 May 2024
Orbit: 508 x 521 km, 81.2° (Epoch: 14 June)

Event Time Altitude Azimuth Distance (km) Brightness Sun altitude
Rises 00:39:51 0° 347° (NNW) 2,660 7.3 -21.7°
Reaches altitude 10° 00:42:00 10° 346° (NNW) 1,768 6.2 -21.6°
Maximum altitude 00:45:53 74° 262° (W) 547 2.6 -21.4°
Enters shadow 00:45:58 74° 247° (WSW) 549 2.6 -21.4°
